Temp
65 65 65 65 65 64 64 65 65 64 65 65 65 65 65 66 65 62 55 63 65 73 72 67 66 65 63 59 61 59 45 43 48 50 56 62 61 68 71 66 66 68 68 72 72
65 65 65 65 64 64 64 64 64 64 64 64 65 65 64 65 62 58 66 71 74 73 64 60 57 60 54 55 57 51 45 48 55 58 57 61 62 64 63 62 61 64 69 71 69
65 65 65 65 64 64 64 64 64 64 64 64 64 65 64 64 56 56 71 72 73 72 65 62 60 58 51 53 52 52 48 55 58 62 62 60 59 65 62 58 64 63 64 67 67
65 65 65 65 64 64 64 63 63 63 63 64 64 64 63 60 42 60 72 73 73 69 64 60 55 50 48 48 54 47 55 58 59 62 60 57 62 60 61 63 68 68 69 68 69
65 65 64 64 64 64 63 63 63 63 63 63 63 63 59 50 51 65 72 71 67 65 60 57 51 50 46 49 51 48 52 58 61 61 62 63 59 59 61 67 68 69 70 68 68
65 64 64 64 64 63 63 63 63 63 63 63 63 62 53 42 63 66 66 64 65 62 58 58 54 55 50 49 48 53 54 55 58 60 61 59 60 59 64 66 65 67 67 66 67
65 64 63 63 63 63 63 63 63 63 63 63 63 60 50 49 64 63 65 62 64 63 58 60 59 54 53 49 55 53 47 51 54 56 56 61 55 56 63 64 64 64 65 65 65
65 64 63 63 63 63 63 63 62 62 62 63 63 55 44 63 63 62 62 61 64 64 62 62 63 57 56 57 50 45 44 39 51 56 57 57 47 59 63 60 60 62 62 62 64
64 63 63 62 62 62 61 62 61 61 62 62 54 50 43 64 56 61 61 58 60 60 61 67 61 54 51 47 42 41 35 38 45 55 54 53 50 60 63 59 59 60 59 61 59
63 63 62 62 61 61 61 61 61 60 60 61 59 47 52 51 58 60 61 61 56 55 54 52 49 41 40 42 33 39 36 38 40 49 52 51 51 56 59 60 58 61 59 57 58
63 62 61 61 61 60 57 51 46 45 51 47 49 48 54 58 61 57 60 57 54 49 39 45 38 37 38 42 42 40 39 38 42 51 49 49 50 55 59 57 56 58 56 56 57
62 62 61 61 61 60 53 46 47 50 41 50 51 52 57 60 51 55 59 48 48 40 41 40 35 45 45 44 42 40 37 37 43 50 50 48 46 54 59 59 61 60 55 54 54
62 62 61 60 60 56 50 50 54 52 40 46 49 48 51 55 49 51 55 50 44 42 43 37 41 47 44 41 39 39 36 37 38 45 48 47 44 49 55 59 62 61 58 57 57
62 61 60 59 53 50 49 54 53 54 33 38 41 48 51 52 45 58 59 53 45 40 41 40 45 43 41 39 41 34 44 44 42 40 33 46 34 45 51 54 57 60 54 56 55
60 61 59 59 48 47 52 53 53 49 14 41 42 56 52 47 48 47 59 53 41 40 40 36 38 38 37 40 44 38 46 43 43 38 36 39 35 42 50 49 54 59 54 56 57
57 59 58 54 51 51 53 54 48 26 15 36 42 40 41 44 46 50 49 53 49 42 43 40 47 44 43 46 46 46 42 41 40 37 29 37 38 39 44 50 54 55 54 55 56
57 58 57 58 48 53 54 47 30 16 40 35 37 40 40 40 41 43 41 38 36 31 31 35 36 43 46 41 44 43 36 26 23 25 27 40 36 40 48 56 59 59 53 54 56
55 57 57 58 55 55 49 37 15 34 34 42 40 40 36 40 40 42 38 34 40 36 32 30 26 38 43 41 38 39 38 27 18 20 28 41 33 39 52 58 58 59 57 55 54
54 54 52 54 55 53 44 28 26 35 41 39 40 34 35 39 40 38 37 36 39 38 30 29 28 42 43 44 45 36 32 42 33 34 29 34 39 48 52 52 53 55 54 53 54
50 50 49 55 56 49 38 31 34 43 43 42 34 37 32 35 35 34 34 39 38 42 42 34 23 39 42 45 44 40 43 30 32 21 22 33 36 41 47 51 49 50 51 53 53
48 44 50 55 53 42 33 34 39 45 45 40 38 37 36 34 34 33 33 40 42 42 42 38 33 32 35 36 36 36 35 38 37 34 28 30 36 51 53 52 51 52 53 52 51
48 37 51 52 40 39 36 41 46 43 46 44 43 40 38 37 33 32 33 41 47 46 36 42 35 29 33 43 44 43 38 39 32 30 36 32 34 52 59 54 55 53 54 53 53
45 44 51 50 35 35 41 43 45 43 44 43 41 43 43 38 34 37 40 49 49 47 41 40 33 27 30 35 42 37 41 41 39 41 34 31 36 51 49 53 54 52 52 52 52
44 38 43 45 45 40 39 40 39 46 45 45 43 44 41 39 42 40 41 48 50 49 47 43 35 32 29 34 39 36 40 43 39 34 35 36 40 45 47 49 49 49 52 51 51
45 42 45 36 39 42 43 42 39 39 43 45 40 41 41 36 38 38 44 46 48 47 43 39 32 32 35 38 38 40 41 40 37 41 35 41 39 46 50 51 50 51 51 51 51
43 43 46 43 44 42 42 40 40 41 42 40 38 44 42 37 41 39 43 43 40 43 40 40 32 34 36 39 38 41 42 45 44 40 38 39 39 55 50 50 48 50 51 51 51
48 49 49 43 42 40 40 41 42 44 44 46 44 43 40 43 47 49 50 51 48 42 39 37 34 36 33 42 40 36 41 42 37 39 39 34 46 49 47 50 47 48 53 52 52
MSLP
1016.30 1016.06 1016.04 1016.04 1016.05 1015.91 1015.78 1015.56 1015.35 1015.14 1015.07 1014.92 1014.82 1014.71 1014.76 1014.93 1015.18 1015.45 1015.38 1014.37 1014.02 1013.77 1013.72 1013.65 1013.45 1013.61 1013.56 1013.77 1013.70 1013.92 1014.50 1014.06 1013.41 1012.80 1011.26 1010.26 1009.88 1008.87 1008.42 1008.06 1007.88 1007.91 1008.29 1007.98 1008.10
1015.84 1015.76 1015.75 1015.77 1015.82 1015.73 1015.64 1015.46 1015.14 1014.97 1014.97 1014.95 1014.88 1014.63 1014.67 1014.83 1015.10 1014.68 1013.96 1013.83 1013.69 1013.63 1013.98 1013.95 1014.04 1014.14 1014.15 1013.97 1013.91 1013.96 1013.59 1012.76 1012.01 1011.50 1010.70 1010.15 1010.14 1009.51 1009.18 1008.63 1008.21 1008.01 1008.09 1008.10 1008.53
1015.49 1015.41 1015.50 1015.44 1015.57 1015.39 1015.33 1015.22 1014.97 1014.89 1015.01 1014.86 1014.87 1014.65 1014.71 1014.85 1014.92 1013.62 1012.88 1013.08 1013.38 1013.54 1013.98 1014.15 1014.27 1014.43 1014.53 1014.19 1013.90 1013.29 1012.47 1012.23 1011.52 1011.01 1010.64 1010.16 1010.06 1009.64 1009.19 1008.96 1008.58 1008.24 1008.39 1008.55 1008.98
1015.08 1015.11 1015.10 1015.02 1015.16 1015.15 1014.97 1015.01 1014.83 1014.87 1015.00 1014.85 1014.84 1014.83 1014.77 1015.03 1014.59 1012.92 1012.63 1012.35 1012.69 1013.35 1013.94 1014.20 1014.48 1014.66 1014.67 1014.33 1013.73 1013.31 1012.32 1012.10 1011.53 1011.08 1010.83 1010.50 1009.94 1009.67 1009.43 1008.95 1008.22 1008.17 1008.15 1008.61 1008.89
1014.49 1014.64 1014.75 1014.75 1014.71 1014.80 1014.68 1014.79 1014.68 1014.75 1014.91 1014.85 1014.86 1014.90 1014.96 1015.02 1013.90 1012.83 1012.69 1012.61 1012.78 1013.30 1013.91 1014.33 1014.61 1014.65 1014.54 1014.15 1013.84 1013.24 1012.72 1012.12 1011.60 1011.28 1010.92 1010.42 1010.01 1009.83 1009.08 1008.86 1008.51 1008.19 1008.04 1008.13 1008.41
1013.97 1014.15 1014.31 1014.39 1014.46 1014.55 1014.45 1014.47 1014.55 1014.68 1014.75 1014.82 1014.89 1014.86 1015.10 1014.68 1012.95 1012.73 1012.93 1012.98 1013.20 1013.64 1013.90 1014.17 1014.08 1014.14 1014.31 1014.14 1013.96 1012.99 1012.69 1012.14 1011.67 1011.14 1010.87 1010.50 1009.75 1009.70 1008.81 1008.57 1008.50 1008.21 1008.00 1007.80 1008.12
1013.37 1013.54 1013.90 1013.99 1014.20 1014.25 1014.29 1014.28 1014.40 1014.48 1014.56 1014.72 1014.91 1015.08 1015.00 1013.70 1012.56 1012.61 1012.95 1013.17 1013.15 1013.45 1013.76 1013.83 1013.96 1014.14 1013.95 1014.00 1013.53 1013.25 1012.78 1012.04 1011.50 1011.08 1010.67 1010.53 1009.06 1008.28 1008.74 1008.39 1008.11 1008.01 1007.80 1007.71 1007.83
1012.72 1012.97 1013.37 1013.66 1013.89 1013.95 1014.04 1014.16 1014.29 1014.39 1014.48 1014.64 1014.82 1015.04 1014.49 1012.81 1012.59 1012.87 1012.81 1013.07 1012.97 1013.15 1013.44 1013.57 1013.75 1014.01 1014.00 1013.82 1013.74 1013.63 1013.25 1012.46 1011.12 1010.86 1010.53 1010.75 1006.27 1008.03 1008.19 1008.25 1008.18 1007.99 1007.92 1007.87 1007.84
1012.06 1012.37 1012.76 1013.18 1013.53 1013.75 1013.81 1014.04 1014.22 1014.30 1014.33 1014.55 1014.85 1014.97 1013.85 1012.54 1012.61 1012.37 1012.76 1013.05 1012.93 1013.07 1013.10 1013.27 1013.58 1013.95 1014.19 1014.35 1014.49 1014.02 1013.39 1012.51 1011.56 1010.71 1010.56 1009.95 1006.85 1008.06 1007.98 1008.12 1007.91 1007.67 1007.61 1007.84 1007.95
1011.38 1011.75 1012.18 1012.66 1013.13 1013.44 1013.68 1013.97 1014.19 1014.25 1014.29 1014.49 1014.48 1014.95 1013.38 1012.49 1012.11 1012.00 1012.36 1012.76 1013.14 1013.31 1013.51 1013.60 1013.95 1014.26 1014.55 1014.76 1013.66 1013.80 1013.40 1012.39 1011.81 1011.22 1010.46 1009.66 1007.61 1008.27 1007.85 1007.56 1007.48 1007.37 1007.26 1007.64 1007.92
1010.67 1011.04 1011.56 1012.12 1012.63 1013.10 1013.77 1014.37 1014.83 1014.69 1013.97 1013.26 1013.25 1012.91 1012.41 1012.00 1011.96 1012.05 1012.22 1012.80 1013.24 1013.82 1014.24 1014.32 1014.62 1014.17 1014.41 1014.22 1014.14 1013.99 1013.41 1012.78 1012.46 1011.71 1011.16 1010.01 1008.48 1008.02 1007.69 1007.17 1007.10 1006.91 1007.24 1007.46 1007.75
1009.82 1010.28 1010.94 1011.58 1012.21 1012.75 1013.41 1013.73 1013.32 1013.18 1013.36 1013.01 1012.89 1012.72 1012.30 1012.28 1012.30 1012.25 1012.24 1013.20 1013.48 1013.84 1014.62 1015.13 1014.19 1014.22 1014.33 1014.31 1014.31 1014.15 1013.77 1013.01 1012.76 1012.30 1011.41 1010.01 1008.40 1007.76 1006.74 1006.13 1006.32 1006.34 1006.83 1007.17 1007.71
1009.10 1009.55 1010.27 1011.12 1011.87 1012.73 1013.03 1013.06 1013.00 1013.08 1013.37 1012.71 1012.27 1012.23 1012.23 1012.46 1012.09 1012.00 1012.28 1012.65 1013.18 1013.76 1014.27 1014.46 1013.77 1013.48 1013.96 1013.91 1014.12 1013.72 1013.49 1013.61 1013.35 1012.63 1011.01 1010.59 1007.95 1007.26 1005.97 1005.75 1005.58 1005.40 1005.84 1006.44 1006.91
1008.49 1008.82 1009.71 1010.92 1012.31 1012.40 1012.75 1012.88 1012.94 1013.20 1013.55 1012.65 1012.22 1011.58 1011.70 1012.00 1011.87 1011.43 1011.58 1012.15 1013.21 1013.42 1014.29 1014.15 1013.88 1013.44 1013.48 1013.42 1013.81 1013.07 1013.21 1013.27 1013.10 1012.92 1011.70 1010.35 1007.94 1006.24 1005.26 1004.72 1004.90 1004.84 1005.55 1005.93 1006.74
1007.98 1008.34 1009.25 1010.08 1010.89 1011.81 1011.86 1012.55 1013.00 1013.67 1013.57 1012.21 1012.07 1011.72 1011.77 1011.90 1011.60 1011.39 1011.11 1011.59 1012.27 1013.09 1013.83 1013.20 1013.00 1012.99 1012.78 1012.68 1012.86 1012.64 1012.93 1012.87 1012.87 1012.47 1012.10 1010.48 1009.88 1005.43 1005.42 1004.07 1003.49 1003.60 1004.49 1005.06 1005.87
1007.45 1007.76 1008.85 1009.88 1010.50 1011.07 1011.59 1012.39 1013.36 1014.50 1012.49 1011.76 1011.80 1011.97 1012.11 1011.89 1011.58 1011.50 1011.73 1011.99 1012.28 1012.85 1012.89 1012.79 1012.57 1012.44 1011.75 1011.88 1012.23 1012.51 1012.78 1012.65 1012.48 1012.38 1011.02 1008.73 1008.96 1004.72 1004.09 1002.85 1002.80 1003.11 1003.72 1004.55 1005.66
1007.08 1007.10 1008.11 1008.93 1009.68 1010.84 1011.54 1012.69 1013.78 1013.29 1011.19 1011.48 1011.44 1011.81 1011.83 1011.58 1011.54 1011.46 1011.68 1012.13 1012.38 1012.83 1012.65 1012.68 1012.60 1012.32 1011.86 1011.85 1011.81 1012.41 1012.93 1012.61 1012.19 1011.38 1008.69 1007.70 1007.48 1004.19 1002.84 1002.21 1001.75 1002.09 1002.96 1004.20 1005.20
1006.88 1006.13 1007.50 1008.45 1008.92 1010.30 1011.42 1012.54 1012.69 1010.67 1010.64 1010.54 1010.91 1011.52 1011.45 1011.12 1011.41 1011.11 1011.45 1011.78 1012.09 1012.49 1012.57 1012.17 1012.21 1011.53 1010.98 1010.83 1010.98 1011.25 1011.63 1011.36 1010.83 1009.93 1008.63 1007.40 1005.08 1002.67 1001.68 1000.89 1001.37 1001.65 1002.32 1003.40 1005.06
1006.42 1005.48 1006.96 1008.45 1008.73 1009.82 1010.98 1011.73 1010.57 1009.74 1009.47 1009.95 1010.75 1010.96 1010.82 1010.94 1011.06 1011.08 1011.15 1011.29 1011.01 1011.35 1011.89 1011.70 1011.30 1010.26 1009.98 1010.19 1010.69 1010.83 1010.86 1010.28 1010.81 1009.54 1008.44 1005.81 1003.69 1002.16 1000.98 1000.32 1000.53 1000.54 1001.73 1002.92 1004.02
1006.40 1004.96 1006.69 1007.88 1008.62 1009.68 1010.73 1010.32 1009.63 1008.97 1009.15 1009.53 1009.80 1010.06 1010.22 1010.37 1010.85 1011.23 1010.78 1009.47 1009.70 1009.90 1010.52 1010.62 1010.80 1009.87 1009.78 1009.89 1009.95 1009.59 1009.36 1010.50 1010.78 1009.69 1007.28 1004.61 1002.95 1000.87 999.82 999.90 1000.09 1001.13 1001.74 1002.97 1004.11
1005.48 1004.73 1006.05 1007.65 1008.75 1009.74 1009.53 1009.36 1008.88 1008.71 1008.63 1009.10 1009.06 1009.34 1009.52 1009.80 1010.16 1010.41 1009.44 1008.47 1008.49 1008.60 1009.59 1010.23 1010.76 1010.41 1010.00 1009.02 1008.89 1009.54 1009.23 1008.70 1008.63 1008.29 1006.80 1004.44 1001.60 999.60 998.62 998.82 999.95 1001.35 1001.71 1002.74 1003.98
1004.37 1004.81 1005.94 1007.25 1008.06 1008.81 1008.65 1008.44 1008.27 1008.20 1008.38 1008.58 1008.72 1008.88 1008.82 1008.86 1009.29 1009.47 1008.33 1007.52 1007.08 1007.44 1008.77 1009.16 1009.73 1009.09 1008.26 1007.89 1008.12 1007.85 1007.79 1008.10 1007.58 1007.08 1006.38 1005.15 1001.89 999.45 998.14 998.50 999.55 1001.63 1001.71 1003.13 1004.24
1003.67 1004.61 1005.91 1006.45 1006.92 1007.67 1007.81 1007.82 1007.82 1007.82 1007.81 1008.00 1007.93 1008.06 1007.72 1008.05 1008.51 1007.82 1006.94 1005.88 1006.23 1006.73 1007.54 1008.56 1008.54 1008.28 1007.31 1007.35 1007.04 1006.56 1006.67 1007.15 1007.41 1006.36 1005.58 1004.99 1002.09 1000.20 998.93 999.47 1000.12 1001.43 1002.34 1003.52 1004.64
1003.53 1004.39 1005.42 1006.28 1006.15 1006.70 1007.22 1007.13 1007.25 1007.18 1007.29 1007.36 1007.25 1007.33 1007.19 1007.20 1006.93 1006.18 1005.85 1005.02 1005.28 1005.79 1006.93 1008.00 1007.55 1007.07 1005.85 1004.20 1004.51 1004.56 1005.20 1005.67 1006.72 1005.87 1005.30 1003.80 1003.49 1001.38 1000.68 1000.16 1000.94 1001.78 1002.41 1003.36 1004.50
1003.36 1002.87 1003.27 1004.72 1005.69 1005.88 1006.29 1006.29 1006.44 1006.62 1006.91 1006.82 1006.87 1006.49 1006.50 1006.18 1005.65 1005.41 1004.93 1004.54 1004.95 1005.47 1006.72 1007.35 1006.62 1006.04 1004.66 1003.60 1003.88 1003.40 1003.41 1004.46 1004.65 1004.85 1004.73 1003.66 1004.15 1001.88 1001.24 1000.15 1000.70 1001.57 1002.73 1003.75 1004.84
1002.92 1002.66 1003.32 1003.79 1004.95 1005.34 1005.67 1005.52 1005.64 1005.88 1006.11 1006.05 1006.14 1005.60 1005.73 1005.49 1004.52 1004.12 1003.99 1003.74 1004.51 1005.58 1006.15 1006.41 1005.83 1004.62 1002.88 1001.68 1002.28 1001.79 1002.26 1003.07 1003.86 1004.78 1004.64 1004.34 1003.79 1001.76 1000.43 1000.51 1001.36 1001.94 1002.81 1003.80 1004.68
1002.73 1002.45 1002.42 1003.66 1004.23 1004.98 1004.71 1004.89 1004.94 1005.22 1005.44 1005.32 1005.32 1005.18 1004.82 1004.38 1004.01 1003.46 1003.14 1003.13 1003.22 1004.15 1005.25 1005.67 1004.98 1003.65 1002.27 1001.34 1001.25 1001.15 1001.04 1001.97 1003.01 1003.83 1004.09 1004.16 1002.15 1000.06 1000.84 1001.38 1002.01 1002.45 1002.94 1003.49 1004.39
Wind_Speed
9 7 7 7 6 5 5 4 4 5 6 6 4 3 4 8 6 3 5 8 4 1 4 4 3 5 1 2 2 2 2 6 9 9 11 3 3 5 6 4 3 3 6 6 5
10 9 8 6 7 6 4 4 3 4 5 5 4 2 2 2 5 9 10 11 11 2 2 3 3 6 3 3 3 5 6 11 8 10 8 5 5 4 4 4 2 1 1 6 5
11 10 10 7 7 5 4 3 3 3 4 5 4 5 4 7 3 7 19 23 17 8 5 1 1 1 2 3 5 5 10 6 5 11 8 7 3 5 6 5 6 4 1 2 6
12 11 11 8 7 6 3 2 2 2 3 4 3 2 1 2 6 1 5 5 17 10 6 2 1 3 3 5 4 8 7 10 4 6 5 4 4 6 5 7 5 6 5 5 8
13 12 11 10 8 6 4 3 2 1 2 2 3 1 2 3 7 2 0 5 5 6 9 6 5 4 5 4 4 6 5 10 10 11 14 14 13 9 10 10 8 8 7 8 8
14 13 12 10 9 7 5 4 4 3 1 2 2 0 0 5 5 4 5 0 3 3 4 7 6 7 4 6 6 5 6 8 9 14 10 16 19 6 13 9 9 8 10 9 8
16 14 12 11 11 9 7 5 5 5 4 2 1 2 2 12 4 3 4 4 4 5 3 7 8 2 1 4 4 5 9 9 8 5 6 10 24 22 10 9 9 9 11 9 9
15 15 13 11 12 10 9 5 2 4 4 4 2 2 7 5 9 7 3 4 4 4 4 5 4 4 3 4 6 4 3 4 4 8 5 8 29 9 9 10 11 11 11 9 8
15 15 14 13 11 9 9 7 4 4 5 5 3 2 9 5 3 7 5 4 2 1 4 7 2 4 2 3 4 4 6 6 5 6 4 13 25 14 10 8 11 11 10 8 7
17 16 15 14 12 10 8 8 3 1 3 5 2 1 4 4 4 3 5 5 3 2 3 1 2 2 3 5 16 12 8 6 6 5 8 18 22 10 8 12 12 13 9 8 9
17 17 17 15 13 11 10 5 2 1 5 7 7 3 2 3 1 2 5 5 2 2 5 2 4 13 11 14 8 6 8 11 4 6 11 15 19 17 13 11 10 12 8 8 9
17 16 17 16 14 15 7 4 4 3 3 12 11 12 7 5 1 3 7 7 8 12 4 4 13 11 8 10 9 14 16 14 9 10 12 12 16 16 18 17 15 15 8 9 5
19 17 18 17 14 9 6 4 6 2 1 4 5 6 7 9 8 8 12 6 6 17 16 17 7 17 13 13 11 16 16 10 12 12 18 14 23 17 15 16 16 11 8 10 17
19 17 19 16 8 5 5 7 6 2 2 4 3 2 4 6 5 14 14 9 6 15 13 15 16 14 11 16 12 18 7 13 13 9 9 2 13 9 10 17 15 14 10 14 11
16 20 24 19 8 7 6 10 6 4 3 4 4 1 3 8 4 3 10 13 13 10 8 8 7 16 21 17 14 8 8 10 10 9 7 18 10 8 12 13 19 20 14 16 16
13 25 25 6 4 5 10 11 5 6 9 6 4 6 5 5 3 3 3 10 2 15 16 10 2 5 8 11 17 2 6 5 5 4 12 16 11 12 13 15 11 9 13 16 16
19 28 22 8 8 11 12 6 4 5 2 6 5 5 5 7 7 9 8 8 6 7 8 5 16 5 2 3 5 11 6 4 4 7 10 10 13 18 8 15 17 16 13 15 16
24 29 16 5 15 14 4 3 3 5 5 3 4 7 7 7 7 8 4 8 14 7 2 7 4 16 10 17 6 14 16 5 6 4 7 6 10 8 16 22 15 12 16 19 17
27 12 10 8 16 8 8 3 8 6 6 10 6 6 7 8 4 3 9 8 11 15 9 6 6 2 4 6 15 6 12 19 7 6 4 7 5 8 13 9 7 9 20 22 21
8 10 10 17 16 7 6 6 5 2 7 4 8 8 7 7 9 8 7 8 6 18 12 5 3 7 6 6 12 10 8 7 7 6 6 5 6 8 8 13 7 13 19 19 17
7 8 11 17 8 7 6 6 4 4 6 7 7 6 8 6 7 6 7 5 13 11 19 5 3 2 2 8 12 11 13 6 8 8 4 5 6 9 14 11 12 14 18 20 19
4 3 15 13 7 4 4 5 7 5 5 4 4 8 8 9 8 6 10 7 12 8 11 11 5 8 16 5 13 17 18 17 9 9 9 2 10 6 16 11 18 16 16 14 15
7 4 11 11 6 8 4 7 4 7 9 6 9 10 12 7 4 10 8 9 7 7 9 9 6 5 5 7 12 14 20 17 11 3 10 3 9 11 4 10 10 14 13 13 14
4 5 5 6 1 7 12 8 7 5 11 7 5 13 7 7 9 4 7 7 16 11 15 12 5 7 10 2 3 11 25 20 20 12 7 14 12 21 4 10 9 10 14 16 16
3 2 6 8 7 10 11 5 12 8 8 10 4 13 7 5 6 10 13 2 7 15 13 9 7 11 20 25 14 13 22 23 17 8 14 3 16 31 15 12 13 11 12 14 15
4 4 3 8 11 8 13 10 11 8 6 6 8 10 16 13 5 4 5 5 6 12 11 5 5 5 7 18 16 16 22 18 14 8 7 9 18 19 3 7 8 14 15 15 16
2 2 4 10 10 8 6 9 11 8 10 11 11 10 5 14 11 7 8 5 9 12 11 6 4 3 5 9 9 8 20 17 6 9 15 15 22 4 4 6 7 11 15 17 16
Wind_Direction
253 254 258 266 273 282 286 285 308 338 345 352 359 8 337 236 208 197 235 238 185 88 335 313 359 345 47 232 235 145 176 210 211 196 238 257 333 318 307 145 188 152 160 246 175
240 247 252 251 260 267 280 295 327 344 344 339 339 24 26 107 209 237 235 241 251 218 59 51 352 1 332 246 223 179 210 211 201 213 235 252 191 283 318 313 253 351 69 54 104
237 236 242 241 252 249 268 307 342 358 340 349 360 9 154 168 239 237 238 238 235 190 140 112 7 34 230 226 226 221 235 221 239 224 230 272 273 240 218 220 226 194 147 120 172
235 237 236 237 239 245 235 277 338 350 338 6 3 19 299 232 217 194 286 247 217 219 150 155 261 168 222 227 231 258 247 238 252 275 283 253 276 276 256 243 219 211 228 175 209
228 232 237 234 232 232 234 246 269 284 343 8 1 290 149 213 241 275 5 64 63 147 201 189 190 185 201 218 280 243 265 254 262 257 266 279 265 256 252 250 254 263 273 255 248
228 226 230 232 233 221 221 225 233 248 294 335 1 132 206 229 229 234 256 239 156 148 188 180 217 210 254 226 231 287 286 275 262 265 262 256 270 244 267 250 237 246 260 263 261
234 219 221 222 226 219 220 225 238 224 224 248 318 246 256 238 194 48 357 229 184 186 187 215 239 283 298 299 290 283 304 297 247 249 266 271 269 254 249 260 247 252 259 265 257
230 218 212 212 221 219 214 217 206 204 211 194 154 149 247 246 247 283 285 310 192 217 196 213 238 240 231 279 336 357 278 256 204 200 227 192 260 254 226 226 239 245 258 259 243
214 217 203 204 214 216 196 186 190 208 202 176 127 148 264 296 214 222 163 209 211 253 267 249 179 211 359 236 282 211 265 262 296 221 218 209 266 247 249 231 244 250 247 255 225
216 207 201 198 203 197 179 153 151 162 202 177 237 198 252 230 209 200 154 176 221 31 346 273 117 175 119 189 230 234 242 235 218 314 220 250 266 260 259 228 230 248 248 215 201
222 206 199 192 185 177 132 100 79 274 230 204 182 221 261 191 117 195 145 113 121 130 193 278 206 222 224 220 244 289 282 260 352 305 283 261 273 262 250 252 242 244 243 218 209
224 211 194 188 179 166 135 190 202 160 228 239 247 232 272 329 323 193 122 161 190 224 142 263 244 237 231 232 232 246 262 272 289 269 281 274 283 270 248 245 236 237 219 208 176
224 207 183 180 167 161 179 198 151 149 249 248 222 217 225 228 234 210 161 173 193 224 219 225 246 224 223 226 230 239 241 256 260 296 285 289 283 272 258 247 248 237 205 186 185
236 192 166 149 130 147 196 163 138 102 303 216 221 257 182 191 264 209 188 164 221 222 224 242 229 260 229 230 216 246 208 237 248 253 256 53 278 249 240 232 231 239 191 190 183
253 177 151 155 143 169 169 146 136 61 3 179 154 329 137 182 140 231 197 204 204 197 171 213 208 219 232 231 220 254 235 229 243 251 282 256 260 253 241 243 223 225 197 191 183
282 163 157 128 106 146 134 131 82 51 254 172 124 175 173 199 214 110 143 234 15 227 227 220 113 225 217 226 223 214 205 274 266 243 239 237 218 244 229 234 226 217 200 182 175
310 162 164 147 157 149 135 121 112 169 211 172 167 181 197 194 208 187 174 202 214 195 213 193 232 259 196 207 197 202 206 263 218 202 247 185 213 244 251 243 221 214 188 176 167
325 159 174 161 138 147 131 88 142 197 179 127 155 170 195 181 225 214 222 225 225 203 275 195 236 197 189 213 177 203 198 201 209 214 229 160 237 242 222 246 247 252 190 161 162
317 152 158 162 147 155 154 182 213 203 148 154 152 191 198 218 224 221 225 224 225 189 194 196 254 224 196 182 189 194 207 219 308 251 260 224 293 285 250 260 231 201 161 169 157
309 155 159 157 153 139 163 228 226 153 118 139 194 182 195 190 195 185 200 207 215 195 202 217 270 199 161 185 225 202 152 149 204 234 241 246 239 231 222 223 157 163 168 164 156
279 132 145 150 150 159 193 220 206 162 138 179 197 184 235 175 181 201 229 241 207 193 189 153 199 157 43 207 209 211 231 217 172 225 268 273 250 197 222 183 170 185 169 164 161
199 141 149 146 155 182 182 190 183 172 211 184 194 215 224 191 186 214 227 231 188 179 183 195 215 227 231 207 223 210 212 220 218 203 236 345 274 352 235 157 163 191 165 160 154
141 120 155 159 162 180 163 208 202 187 189 209 213 212 205 191 222 194 218 223 175 166 163 165 216 255 256 173 210 210 206 196 238 241 224 232 271 6 132 149 164 162 147 150 144
87 140 131 190 243 152 192 201 200 218 228 215 233 223 238 231 219 258 233 207 185 175 163 176 225 222 240 9 148 191 196 203 208 232 211 230 264 288 251 140 140 150 151 154 156
170 161 120 167 196 175 175 200 200 210 211 209 222 241 216 255 209 219 245 209 165 161 173 188 246 218 241 256 246 209 191 193 192 178 200 229 221 262 231 175 172 150 143 149 158
147 149 156 160 168 162 186 200 203 187 198 191 218 230 216 229 215 231 214 192 184 169 186 210 270 258 253 223 218 183 186 191 194 191 257 275 279 241 134 97 130 158 156 163 170
1 282 131 155 177 183 210 204 213 177 200 211 220 259 230 231 240 248 237 257 169 171 189 196 251 287 351 139 129 159 173 180 172 207 196 219 235 152 85 101 148 159 170 173 171